K4VI Weather Reports


Display with metric or nautical units.
time (UTC)temp
F
wind
direction
speed
MPH
gust
MPH
rain 1hr
in
rain 24hr
in
rain mn
in
humidity
%
barometer
mb
20260504050503 48 323 5.0 9.0 0.00 0.00 0.00 36 1031.2
20260504050003 48 317 5.0 9.0 0.00 0.00 0.00 35 1031.2
20260504045503 48 311 4.0 9.0 0.00 0.00 0.00 35 1031.1
20260504045003 48 312 3.0 8.0 0.00 0.00 0.00 34 1031.2
20260504044503 48 317 4.0 12.0 0.00 0.00 0.00 34 1031.3
20260504044003 49 315 4.0 12.0 0.00 0.00 0.00 33 1031.2
20260504043719 49 314 4.0 12.0 0.00 0.00 0.00 34 1031.2
20260504043003 49 317 4.0 8.0 0.00 0.00 0.00 33 1031.2
20260504042503 49 313 4.0 8.0 0.00 0.00 0.00 33 1031.2
20260504042218 49 309 4.0 11.0 0.00 0.00 0.00 33 1031.2
20260504041503 49 306 5.0 11.0 0.00 0.00 0.00 32 1031.2
20260504041003 49 306 4.0 11.0 0.00 0.00 0.00 32 1031.2
20260504040504 50 305 5.0 11.0 0.00 0.00 0.00 32 1031.2
20260504040003 50 310 7.0 13.0 0.00 0.00 0.00 31 1031.2
20260504035718 50 307 8.0 13.0 0.00 0.00 0.00 31 1031.2
20260504035003 50 305 7.0 15.0 0.00 0.00 0.00 31 1031.3
20260504034503 50 313 6.0 15.0 0.00 0.00 0.00 32 1031.2
20260504034003 49 319 4.0 10.0 0.00 0.00 0.00 32 1031.2
20260504033720 49 325 3.0 8.0 0.00 0.00 0.00 32 1031.1
20260504033003 50 317 2.0 5.0 0.00 0.00 0.00 31 1031.1
20260504032721 50 313 2.0 5.0 0.00 0.00 0.00 31 1031.1
20260504032003 50 318 3.0 5.0 0.00 0.00 0.00 30 1031.1
20260504031503 50 329 2.0 5.0 0.00 0.00 0.00 30 1031.1
20260504031003 51 324 2.0 7.0 0.00 0.00 0.00 29 1031.1
20260504030503 51 310 3.0 10.0 0.00 0.00 0.00 29 1031.0
20260504030003 51 301 4.0 13.0 0.00 0.00 0.00 28 1030.8
20260504025503 52 306 4.0 13.0 0.00 0.00 0.00 28 1030.9
20260504025003 52 302 3.0 11.0 0.00 0.00 0.00 27 1030.9
20260504024503 52 296 5.0 11.0 0.00 0.00 0.00 27 1030.9
20260504024218 52 303 5.0 12.0 0.00 0.00 0.00 27 1030.8
20260504023721 52 301 5.0 12.0 0.00 0.00 0.00 26 1030.8
20260504023003 52 300 5.0 11.0 0.00 0.00 0.00 26 1030.7
20260504022504 52 312 5.0 11.0 0.00 0.00 0.00 26 1030.5
20260504022003 53 315 5.0 11.0 0.00 0.00 0.00 26 1030.5
20260504021503 53 312 5.0 12.0 0.00 0.00 0.00 26 1030.6
20260504021003 53 314 5.0 14.0 0.00 0.00 0.00 26 1030.4
20260504020503 53 311 5.0 14.0 0.00 0.00 0.00 26 1030.4
20260504020003 53 306 4.0 10.0 0.00 0.00 0.00 25 1030.3
20260504015503 54 307 5.0 10.0 0.00 0.00 0.00 25 1030.1
20260504015003 54 299 5.0 11.0 0.00 0.00 0.00 24 1030.1
20260504014503 54 302 4.0 11.0 0.00 0.00 0.00 24 1030.1
20260504014003 54 308 6.0 19.0 0.00 0.00 0.00 23 1030.0
20260504013721 54 309 7.0 19.0 0.00 0.00 0.00 23 1030.0
20260504013003 54 307 7.0 16.0 0.00 0.00 0.00 22 1030.0
20260504012503 54 308 6.0 15.0 0.00 0.00 0.00 22 1030.0
20260504012220 55 311 6.0 16.0 0.00 0.00 0.00 22 1030.0
20260504011503 55 303 6.0 16.0 0.00 0.00 0.00 22 1030.0
20260504011003 55 302 5.0 12.0 0.00 0.00 0.00 21 1029.9
20260504010503 56 317 5.0 12.0 0.00 0.00 0.00 21 1029.9
20260504010003 56 308 6.0 15.0 0.00 0.00 0.00 21 1029.9
20260504005503 55 310 6.0 15.0 0.00 0.00 0.00 21 1030.1
20260504005004 55 304 6.0 14.0 0.00 0.00 0.00 21 1029.9
20260504004503 55 302 7.0 19.0 0.00 0.00 0.00 20 1029.9
20260504004003 56 316 7.0 19.0 0.00 0.00 0.00 20 1029.9
20260504003503 56 310 6.0 13.0 0.00 0.00 0.00 20 1029.9
20260504003003 56 304 8.0 19.0 0.00 0.00 0.00 20 1030.0
20260504002503 56 308 8.0 19.0 0.00 0.00 0.00 20 1030.0
20260504002003 56 304 7.0 17.0 0.00 0.00 0.00 20 1030.0
20260504001503 56 301 8.0 16.0 0.00 0.00 0.00 21 1030.0
20260504001003 57 303 7.0 16.0 0.00 0.00 0.00 20 1030.1
20260504000503 57 302 6.0 15.0 0.00 0.00 0.00 20 1030.1
20260504000003 56 303 4.0 11.0 0.00 0.00 0.00 20 1030.1
20260503235503 56 304 4.0 11.0 0.00 0.00 0.00 21 1030.1
20260503235003 56 303 5.0 15.0 0.00 0.00 0.00 21 1030.1
20260503234503 56 303 7.0 20.0 0.00 0.00 0.00 20 1030.1
20260503234003 56 300 8.0 20.0 0.00 0.00 0.00 20 1030.1
20260503233503 56 305 8.0 18.0 0.00 0.00 0.00 20 1030.3
20260503233003 56 305 7.0 18.0 0.00 0.00 0.00 20 1030.1
20260503232718 56 285 6.0 16.0 0.00 0.00 0.00 21 1030.1
20260503232216 56 258 4.0 16.0 0.00 0.00 0.00 21 1030.1
20260503231503 57 274 3.0 9.0 0.00 0.00 0.00 21 1030.3
20260503231003 57 293 3.0 9.0 0.00 0.00 0.00 23 1030.3
20260503230720 56 273 4.0 10.0 0.00 0.00 0.00 24 1030.2
20260503230218 57 251 5.0 10.0 0.00 0.00 0.00 21 1030.2
20260503225503 58 274 5.0 13.0 0.00 0.00 0.00 22 1030.3
20260503225219 57 300 7.0 17.0 0.00 0.00 0.00 21 1030.3
20260503224503 57 307 9.0 17.0 0.00 0.00 0.00 21 1030.4
20260503224220 57 299 8.0 17.0 0.00 0.00 0.00 21 1030.4
20260503223503 58 290 7.0 17.0 0.00 0.00 0.00 21 1030.4
20260503223003 57 270 7.0 17.0 0.00 0.00 0.00 21 1030.5
20260503222503 58 255 6.0 15.0 0.00 0.00 0.00 21 1030.5
20260503222003 59 284 6.0 13.0 0.00 0.00 0.00 22 1030.4
20260503221720 58 287 6.0 13.0 0.00 0.00 0.00 22 1030.5
20260503221003 59 277 7.0 13.0 0.00 0.00 0.00 21 1030.7
20260503220721 59 290 6.0 13.0 0.00 0.00 0.00 22 1030.8
20260503220219 59 304 6.0 13.0 0.00 0.00 0.00 22 1030.7
20260503215503 58 282 5.0 13.0 0.00 0.00 0.00 22 1030.9
20260503215003 57 286 6.0 18.0 0.00 0.00 0.00 23 1030.9
20260503214503 58 294 8.0 18.0 0.00 0.00 0.00 22 1031.2
20260503214221 58 291 7.0 14.0 0.00 0.00 0.00 22 1031.1
20260503213503 58 296 7.0 14.0 0.00 0.00 0.00 23 1031.2
20260503213003 57 301 7.0 15.0 0.00 0.00 0.00 23 1031.3
20260503212503 58 294 6.0 16.0 0.00 0.00 0.00 23 1031.5
20260503212003 58 262 4.0 16.0 0.00 0.00 0.00 23 1031.7
20260503211503 58 272 4.0 12.0 0.00 0.00 0.00 23 1031.7
20260503211219 57 271 4.0 9.0 0.00 0.00 0.00 26 1031.8
20260503210716 56 295 5.0 12.0 0.00 0.00 0.00 23 1031.9
20260503210219 56 313 4.0 12.0 0.00 0.00 0.00 23 1031.9
20260503205717 57 307 4.0 11.0 0.00 0.00 0.00 22 1032.0
20260503205221 57 289 4.0 11.0 0.00 0.00 0.00 22 1031.9
20260503204503 58 259 5.0 13.0 0.00 0.00 0.00 21 1032.1
20260503204222 57 268 5.0 13.0 0.00 0.00 0.00 22 1032.2
20260503203503 56 264 4.0 9.0 0.00 0.00 0.00 22 1032.2
20260503203003 56 274 5.0 13.0 0.00 0.00 0.00 23 1032.4
20260503202503 56 302 6.0 16.0 0.00 0.00 0.00 23 1032.6
20260503202003 55 304 6.0 16.0 0.00 0.00 0.00 24 1032.9
20260503201503 55 287 5.0 13.0 0.00 0.00 0.00 23 1033.0
20260503201003 55 294 5.0 11.0 0.00 0.00 0.00 23 1033.0
20260503200503 56 286 6.0 11.0 0.00 0.00 0.00 23 1033.0
20260503200003 56 266 5.0 11.0 0.00 0.00 0.00 23 1033.0
20260503195718 57 284 4.0 11.0 0.00 0.00 0.00 23 1033.0
20260503195003 56 282 3.0 8.0 0.00 0.00 0.00 25 1033.1
20260503194719 55 276 3.0 7.0 0.00 0.00 0.00 25 1033.1
20260503194003 56 235 3.0 9.0 0.00 0.00 0.00 24 1033.3
20260503193503 55 238 4.0 13.0 0.00 0.00 0.00 26 1033.1
20260503193003 55 258 5.0 13.0 0.00 0.00 0.00 25 1033.3
20260503192721 56 258 6.0 15.0 0.00 0.00 0.00 24 1033.3
20260503192003 55 262 5.0 15.0 0.00 0.00 0.00 27 1033.5
20260503191503 55 252 4.0 15.0 0.00 0.00 0.00 26 1033.6
20260503191003 56 257 5.0 11.0 0.00 0.00 0.00 26 1033.4
20260503190718 55 268 6.0 13.0 0.00 0.00 0.00 27 1033.5
20260503190003 55 263 7.0 15.0 0.00 0.00 0.00 26 1033.7
20260503185503 55 254 5.0 15.0 0.00 0.00 0.00 25 1033.8
20260503185217 56 217 5.0 13.0 0.00 0.00 0.00 27 1033.9
20260503184720 55 185 4.0 12.0 0.00 0.00 0.00 27 1033.9
20260503184003 54 268 3.0 14.0 0.00 0.00 0.00 28 1034.3
20260503183721 54 284 4.0 14.0 0.00 0.00 0.00 28 1034.3
20260503183003 52 279 5.0 11.0 0.00 0.00 0.00 30 1034.4
20260503182503 52 280 5.0 13.0 0.00 0.00 0.00 30 1034.6
20260503182220 52 269 4.0 13.0 0.00 0.00 0.00 30 1034.7
20260503181504 51 237 3.0 10.0 0.00 0.00 0.00 31 1034.8
20260503181003 51 261 5.0 13.0 0.00 0.00 0.00 31 1034.8
20260503180503 51 268 5.0 13.0 0.00 0.00 0.00 29 1034.9
20260503180221 51 258 5.0 11.0 0.00 0.00 0.00 30 1034.9
20260503175503 51 264 5.0 13.0 0.00 0.00 0.00 30 1035.0
20260503175217 51 262 5.0 13.0 0.00 0.00 0.00 30 1034.9
20260503174503 51 266 5.0 12.0 0.00 0.00 0.00 30 1035.0
20260503174003 50 264 5.0 12.0 0.00 0.00 0.00 30 1035.1
20260503173503 50 259 5.0 12.0 0.00 0.00 0.00 30 1035.2
20260503173003 50 275 6.0 13.0 0.00 0.00 0.00 30 1035.2
20260503172717 50 276 6.0 13.0 0.00 0.00 0.00 30 1035.3
20260503172220 51 258 5.0 12.0 0.00 0.00 0.00 30 1035.4
20260503171503 50 278 6.0 12.0 0.00 0.00 0.00 30 1035.5
20260503171221 50 287 6.0 12.0 0.00 0.00 0.00 30 1035.5
20260503170503 50 246 5.0 12.0 0.00 0.00 0.00 31 1035.6
20260503151003 47 307 3.0 8.0 0.00 0.00 0.00 37 1036.1
20260503150503 47 312 3.0 9.0 0.00 0.00 0.00 37 1036.1
20260503140219 44 301 2.0 4.0 0.00 0.00 0.00 40 1036.0
20260503131003 42 322 4.0 9.0 0.00 0.00 0.00 42 1035.8
20260503130503 42 323 3.0 8.0 0.00 0.00 0.00 42 1035.8
20260503110503 40 3 0.0 2.0 0.00 0.00 0.00 44 1035.4
20260503090503 42 324 3.0 6.0 0.00 0.00 0.00 43 1035.8
20260503081003 39 326 1.0 3.0 0.00 0.00 0.00 46 1036.0
20260503080503 39 333 1.0 4.0 0.00 0.00 0.00 47 1036.0
20260503072503 38 328 1.0 5.0 0.00 0.00 0.00 46 1036.3
20260503072003 38 333 1.0 4.0 0.00 0.00 0.00 45 1036.2
20260503071503 38 331 0.0 1.0 0.00 0.00 0.00 45 1036.2
20260503071003 38 330 0.0 2.0 0.00 0.00 0.00 45 1036.3
20260503070504 38 330 0.0 2.0 0.00 0.00 0.00 45 1036.2
20260503060219 42 346 2.0 4.0 0.00 0.00 0.00 38 1036.3
20260503055003 42 317 1.0 3.0 0.00 0.00 0.00 34 1036.3
20260503054503 42 321 1.0 3.0 0.00 0.00 0.00 34 1036.2
20260503054003 42 327 1.0 3.0 0.00 0.00 0.00 34 1036.3
20260503053503 42 329 1.0 3.0 0.00 0.00 0.00 34 1036.2
20260503053003 42 325 1.0 4.0 0.00 0.00 0.00 36 1036.2
20260503052720 41 323 1.0 4.0 0.00 0.00 0.00 36 1036.1
20260503052003 40 318 1.0 3.0 0.00 0.00 0.00 41 1036.3